Location: Unspecified
(42.2730°N, 83.7130°W)
Time: 14:32:26
(UTC+00:00)

Cosmos 2322 Rocket - Pass Details

Date: 14 December 2025
Orbit: 831 x 850 km, 71.0° (Epoch: 17 January)

Event Time Altitude Azimuth Distance (km) Brightness Sun altitude
Rises 23:25:24 0° 154° (SSE) 3,390 5.3 -14.6°
Reaches altitude 10° 23:28:48 10° 133° (SE) 2,464 4.3 -15.2°
Enters shadow 23:30:53 15° 112° (ESE) 2,139 3.9 -15.6°
